Regional Weather Roundup
Issued by NWS Green Bay, WI

Home | Current Version | Previous Version | Graphics & Text | Print | Product List | Glossary Off
Versions: 1 2 3 4 5 6 7 8 9 10 11 12 13 14 15 16 17 18 19 20 21 22 23 24 25 26 27 28 29 30 31 32 33 34 35 36 37 38 39 40 41 42 43 44 45 46 47 48 49 50

000
ASUS43 KGRB 290900
RWRGRB

NORTH-CENTRAL AND NORTHEAST WISCONSIN REGIONAL WEATHER ROUNDUP
NATIONAL WEATHER SERVICE GREEN BAY WI
400 AM CDT FRI APR 29 2016

WIZ005-009-010>012-018-019-291000-
NORTH CENTRAL WISCONSIN

CITY           SKY/WX    TMP DP  RH WIND       PRES   REMARKS
IRONWOOD       CLOUDY    30  28  93 CALM      30.11R
MANITOWISH WTR NOT AVBL
ARBOR VITAE    NOT AVBL
EAGLE RIVER    NOT AVBL
LAND O LAKES   NOT AVBL
RHINELANDER    CLOUDY    37  35  92 CALM      30.11R
PHILLIPS       CLOUDY    37  34  87 CALM      30.11R
ANTIGO         NOT AVBL
TOMAHAWK       NOT AVBL
MERRILL        NOT AVBL
$$

WIZ013-073-291000-
NORTHEAST WISCONSIN

CITY           SKY/WX    TMP DP  RH WIND       PRES   REMARKS
IRON MOUNTAIN  CLOUDY    39  26  59 N7        30.09S
MARINETTE      CLOUDY    43  27  52 NE6       30.10R
$$

WIZ017-030-035>037-045-291000-
CENTRAL WISCONSIN

CITY           SKY/WX    TMP DP  RH WIND       PRES   REMARKS
MEDFORD        NOT AVBL
WAUSAU         CLOUDY    39  35  86 N3        30.09R
MOSINEE        NOT AVBL
MARSHFIELD     CLOUDY    38  35  89 NE8       30.10R
WISC RAPIDS    CLOUDY    39  34  82 N8        30.12R
STEVENS POINT  NOT AVBL
WAUPACA        NOT AVBL
SHAWANO        NOT AVBL
CLINTONVILLE   NOT AVBL
WAUTOMA        LGT RAIN  38  36  92 N6        30.09
$$

WIZ038-039-048-051-291000-
FOX VALLEY

CITY           SKY/WX    TMP DP  RH WIND       PRES   REMARKS
NWS GREEN BAY  LGT RAIN  42  35  76 NE9       30.08S
APPLETON       NOT AVBL
OSHKOSH        CLOUDY    42  33  70 NE6       30.05F
FOND DU LAC    LGT RAIN  40  37  89 CALM      30.06S
$$

WIZ022-050-052-291000-
EAST CENTRAL WISCONSIN

CITY           SKY/WX    TMP DP  RH WIND       PRES   REMARKS
EPHRAIM        NOT AVBL
STURGEON BAY   CLOUDY    39  30  70 N3        30.11R
MANITOWOC      NOT AVBL
SHEBOYGAN      CLOUDY    40  34  79 NE3       30.06S
$$

LMZ563-521-522-541>543-291000-
LAKESHORE

STATION/POSITION TIME  TEMP    WIND        PRES    VSBY  WAVE
                       AIR SEA DIR/SP/G                  HT/PER
                 (UTC) (F)     (DEG/KT/KT) (MB)    (MI)  (FT/S)
SHEBOYGAN LKSHOR 0800   40     100/  5/  6 1018.7R
KEWAUNEE LKSHORE 0800   42     360/  6/  8 1017.5R
ALGOMA MARINA    0800          330/  6/  7   N/A
NORTHPORT PIER   0800   40      40/  6/  8 1019.0S
N MID LAKE BUOY  0750   39 38  110/  4/  4 1019.1S         1/ 3
CHAMBERS ISLAND  0800   41      10/ 10/ 12 1019.0S
MENOMINEE LKSHOR 0800   41      10/  5/  7 1017.7R
$$




USA.gov is the U.S. government's official web portal to all federal, state and local government web resources and services.